This is the latest recevied weather packets stored in our database for station/object KB4MOX. If no packets are shown the sender has not sent any weather packets the latest 10 day(s).
| Time | Temp. | Humidity | Pressure | Rain* | Wind** | Luminosity | Snow |
|---|---|---|---|---|---|---|---|
| 1778108365 | 27.78° C | 51% | 1013 hPa | 0 mm | - | 51 W/m² | - |
| 1778108063 | 27.78° C | 50% | 1013 hPa | 0 mm | - | 52 W/m² | - |
| 1778107760 | 28.33° C | 49% | 1012.7 hPa | 0 mm | - | 53 W/m² | - |
| 1778107457 | 28.33° C | 49% | 1012.6 hPa | 0 mm | - | 73 W/m² | - |
| 1778107153 | 28.89° C | 49% | 1012.6 hPa | 0 mm | - | 90 W/m² | - |
| 1778106848 | 28.89° C | 48% | 1013.1 hPa | 0 mm | - | 110 W/m² | - |
| 1778106546 | 28.89° C | 49% | 1012.9 hPa | 0 mm | - | 90 W/m² | - |
| 1778106242 | 29.44° C | 47% | 1012.8 hPa | 0 mm | - | 137 W/m² | - |
| 1778105939 | 29.44° C | 47% | 1012.8 hPa | 0 mm | - | 158 W/m² | - |
| 1778105636 | 28.89° C | 48% | 1012.6 hPa | 0 mm | - | 187 W/m² | - |
| 1778105334 | 28.89° C | 49% | 1012.6 hPa | 0 mm | - | 143 W/m² | - |
| 1778105029 | 29.44° C | 47% | 1012.5 hPa | 0 mm | - | 134 W/m² | - |
| 1778104726 | 30° C | 47% | 1012.7 hPa | 0 mm | - | 167 W/m² | - |
| 1778104422 | 30° C | 47% | 1012.4 hPa | 0 mm | - | 225 W/m² | - |
| 1778104118 | 30° C | 46% | 1012.5 hPa | 0 mm | - | 257 W/m² | - |
| 1778103815 | 30° C | 47% | 1012.7 hPa | 0 mm | - | 315 W/m² | - |
| 1778103514 | 30° C | 46% | 1012.7 hPa | 0 mm | - | 382 W/m² | - |
| 1778103210 | 29.44° C | 46% | 1012.7 hPa | 0 mm | - | 265 W/m² | - |
| 1778102907 | 29.44° C | 47% | 1012.8 hPa | 0 mm | - | 271 W/m² | - |
| 1778102603 | 30° C | 46% | 1012.8 hPa | 0 mm | - | 235 W/m² | - |
| 1778102298 | 30° C | 46% | 1013 hPa | 0 mm | - | 283 W/m² | - |
| 1778101995 | 30° C | 45% | 1013 hPa | 0 mm | - | 258 W/m² | - |
| 1778101692 | 30° C | 44% | 1013.3 hPa | 0 mm | - | 233 W/m² | - |
| 1778101389 | 30.56° C | 43% | 1013.2 hPa | 0 mm | - | 131 W/m² | - |
| 1778101086 | 31.67° C | 42% | 1013 hPa | 0 mm | - | 222 W/m² | - |
* Rain latest hour (hover to see other rain measurements)
** Current wind speed in m/s (hover to see current wind gust speed)